Погода в Кубе

Погода в Кубе : погода сейчас, прогноз погоды и архив. Всё, что Вы хотите узнать о погоде в Кубе!

Поиск расширенной информации на нашем сайте:

Другие новости

Новости СМИ2

Главная страница сайта

Новости сайта

03.07.2017

Напоминаем, что на нашем специализированном сайте Метеоцентр.Азия вы можете получить высокодетализированные автоматические прогнозы погоды по пунктам России, СНГ и мира в авиационном формате (включающие направление и скорость ветра, видимость, явления погоды, количество и форму облачности, нижнюю и верхнюю границу облачности).


Погода в Кубе - сегодня

Время (UTC), дата Ветер
(°,м/с) 
Видим.   Явления Облачность Т
(°С)
Тd
(°С)
f(%) Тe
(°С)
Pmin
(гПа)
dP
(гПа)
Po
(мм)
O2
(г/м3)
Тmin Tmax R s Состояние
почвы
03 20.05.18 230 (ЮЗ) 20000 м    4/0 средняя, верхняя 
[Ac cast|Ci fib]
+18.3 +9.4 56 +21  1014.6  -0.1  714  268           
09 20.05.18 050 (СВ) 20000 м    8/0 верхняя 
[Ci sp]
+27.7 +10 33 +30  1010.9  -0.7  713  259           
12 20.05.18 тихо ()   20000 м    8/0 средняя, верхняя 
[Ac cast|Ci fib]
+27.2 +9 32 +28  1010.5  -0.5  712  259           
15 20.05.18 270 (З) 20000 м    8/0 средняя, верхняя 
[Ac cast|Ci fib]
+24.2 +8.5 37 +24  1011.7  0.6  713  262           
21 20.05.18 270 (З) 2000 м    ясно 
+18.2 +10.9 62 +22  1013.2  -1  713  267           
00 21.05.18 270 (З) 2000 м    ясно 
+18.2 +10.4 60 +22  1012.6  -0.5  712  267           
03 21.05.18 230 (ЮЗ) 20000 м    8/0 средняя 
[Ac As]
+18.9 +9.9 56 +22  1013.3  0.6  713  267           
06 21.05.18 тихо ()   20000 м    8/0 средняя 
[Ac As]
+24.7 +11.2 43 +29  1012.5  0.5  713  261  +17.6         
09 21.05.18 090 (В) 20000 м    8/0 средняя 
[Ac As]
+25.4 +10.6 39 +28  1012.5  0.2  713  261           
12 21.05.18 020 (С) 20000 м    8/0 средняя 
[Ac As]
+27.5 +11.2 36 +31  1011.6  -0.5  713  259           
15 21.05.18 340 (С) 20000 м    8/0 средняя 
[Ac As]
+24.3 +11.4 44 +28  1012.8  0.6  713  262           
21 21.05.18 320 (СЗ) 2000 м    9/9 600 м 
[Sc]
+20.5 +12.5 60 +26  1016.7  0.6  716  266           
00 22.05.18 тихо ()   2000 м    8/8 600 м 
[Sc]
+18.5 +13.2 71 +25  1018.5  1.3  717  268           
03 22.05.18 тихо ()   20000 м    8/0 средняя 
[Ac As]
+19.2 +13.4 69 +26  1019.9  1.5  718  267           
06 22.05.18 050 (СВ) 10 км    4/4 1000 м верхняя 
[Cu med, cong|Ci fib]
+23.3 +12.5 51 +29  1019.2  0.2  718  264  +18.3         
09 22.05.18 090 (В) 10 км    6/6 1000 м 
[Cu med, cong]
+24.3 +13.7 52 +32  1019  718  263           
12 22.05.18 050 (СВ) 10 км    6/6 1000 м 
[Cu med, cong]
+23.4 +13.8 55 +31  1019.1  -0.1  718  264           
15 22.05.18 090 (В) 10 км    4/4 1000 м верхняя 
[Cu med, cong|Ci fib]
+22.1 +13.4 58 +29  1019.5  0.2  718  265           
18 22.05.18 050 (СВ) 2000 м    ясно 
+18.1 +14.1 77 +26  1020.8  0.3  718  268    +24.8       
21 22.05.18 050 (СВ) 2000 м    ясно 
+16.7 +6.1 50 +17  1020.7  -0.5  718  271           
00 23.05.18 тихо ()   2000 м    ясно 
+14.5 +2.1 43 +15  1021.5  0.3  718  274           
03 23.05.18 270 (З) 20000 м    ясно 
+18 +2.9 36 +19  1021.1  0.3  718  271           
09 23.05.18 140 (ЮВ) 20000 м    ясно 
+29.9 +2.1 17 +30  1017.9  -0.8  718  260           
12 23.05.18 110 (В) 20000 м    ясно 
+27.4 +4.5 23 +27  1017.6  -0.6  717  262           
15 23.05.18 140 (ЮВ) 20000 м    ясно 
+25.5 +5.9 28 +26  1017  -1  716  263           
Время (UTC), дата Ветер
(°,м/с) 
Видим.   Явления Облачность Т
(°С)
Тd
(°С)
f(%) Тe
(°С)
Pmin
(гПа)
dP
(гПа)
Po
(мм)
O2
(г/м3)
Тmin Tmax R s Состояние
почвы

Для получения пояснительной информации подведите курсор к названию столбца.

ПОГОДА в Кубе - архив

Всё, что Вы хотите узнать о погоде в Кубе - удобно и подробно!

Выберите нужную дату (начиная с 1 января 2015* года) и нажмите кнопку "Найти".
Будут отображены архивные сводки погоды по пункту Куба, начиная с указанной даты.


Отображать данные в формате CSV (для использования в таблицах Excel)


Внимание! Наш архив погоды предназначен исключительно для личного некоммерческого использования в познавательных целях. Если Вам необходимы официальные справки о состоянии погоды (для производственных, юридических, коммерческих и т.п. целей), обращайтесь в органы Росгидромета.

*Примечание: данная дата относится к архиву по метеостанциям СССР (Россия, СНГ, Балтия).
Архив по метеостанциям Зарубежной Европы и Азии (кроме Китая) хранится 10 дней, по другим регионам земного шара (Китай, Африка, Америка, Австралия, Океания) - 1 день.

Куба - район местоположения метеостанции


Название, широта, долгота, высота метеостанции:
Куба 41.4°ш. 48.5°д. 552 м над ур. моря [Азербайджан]

Дополнительная информация

В oтличие oт бoльшинства пoгoдных сайтoв мы публикуем пoдрoбную метеoинфoрмацию в детальнoм прoфессиoнальнoм фoрмате.

Характеристики температуры и влажнoсти вoздуха измеряются на высoте 2 м в тени вдали oт зданий и деревьев.
Скoрoсть ветра измеряется на высoте 10 м (на урoвне рoста челoвека скoрoсть ветра ниже в 1.5-2 раза). Если метеoстанция нахoдится в гoрoде или в лесу, тo скoрoсть ветра занижена на 2-4 м/с пo сравнению с oткрытым местoм. Скoрoсть ветра над акватoриями крупных рек и oзёр, а также на вершинах хoлмoв на 2-5 м/с выше, чем в oбычных услoвиях.
Атмoсфернoе давление в разных тoчках местнoсти мoжет значительнo oтличаться oт давления на метеoстанции, в зависимoсти oт услoвий рельефа (при пoдъёме на 10 м давление пoнижается примернo на 1 мм рт.ст.).